Regional Weather Roundup
Issued by NWS New Orleans/Baton Rouge, LA

Home | Current Version | Previous Version | Graphics & Text | Print | Product List | Glossary On
Versions: 1 2 3 4 5 6 7 8 9 10 11 12 13 14 15 16 17 18 19 20 21 22 23 24 25 26 27 28 29 30 31 32 33 34 35 36 37 38 39 40 41 42 43 44 45 46 47 48 49 50
889
ASUS44 KLIX 250405
RWRLIX
NEW ORLEANS REGIONAL WEATHER ROUNDUP
NATIONAL WEATHER SERVICE NEW ORLEANS LA
1000 PM CST SAT JAN 24 2015

NOTE: "FAIR" INDICATES FEW OR NO CLOUDS BELOW 12,000 FEET WITH NO
      SIGNIFICANT WEATHER AND/OR OBSTRUCTIONS TO VISIBILITY.
      SKY/WX - SKY CONDITION AND SIGNIFICANT WEATHER.
      TMP - AIR TEMPERATURE.     DP    - DEWPOINT TEMPERATURE.
      RH  - RELATIVE HUMIDITY.   PRES  - PRESSURE.
      HI  - HEAT INDEX.          WCI   - WIND CHILL INDEX.

*  THESE STATIONS ARE NOT NWS OR FAA STATIONS AND ARE NOT UNDER
   NWS QUALITY CONTROL.

LAZ038-040-048-061>063-065>067-069-250500-
SOUTHEAST LOUISIANA

CITY           SKY/WX    TMP DP  RH WIND       PRES   REMARKS
N.O. AUDUBON   NOT AVBL
N.O. INTL ARPT PTCLDY    46  38  73 SW9       30.10R
N.O. LAKEFRONT CLEAR     50  40  68 SW13      30.10R
N.O. DOWNTOWN*   N/A     48  36  61 SW6       30.11R
SLIDELL        CLEAR     38  35  89 CALM      30.07S
BATON ROUGE    CLEAR     46  37  71 SW9       30.08S
BOOTHVILLE     CLEAR     47  43  86 W7        30.11S
BELLE CHASSE   PTCLDY    48  39  71 SW7       30.10S
BOGALUSA*        N/A     37  34  89 CALM      30.07S
GALLIANO*      PTCLDY    48  42  81 MISG      30.12S
NEW ROADS*       N/A     46  38  73 SW6       30.07F
GONZALES*        N/A     46  40  80 SW5       30.10R
HAMMOND*       CLEAR     39  34  81 CALM      30.09R
HOUMA*         PTCLDY    45  41  85 SW5       30.11S
PORT FOURCHON* CLEAR     52  41  66 W10       30.15S

$$

MSZ070-080>082-250500-
SOUTHERN MISSISSIPPI

CITY           SKY/WX    TMP DP  RH WIND       PRES   REMARKS
MCCOMB         CLEAR     37  32  82 CALM      30.04F
GULFPORT       CLEAR     40  35  83 CALM      30.07R
BILOXI         CLEAR     45  33  64 W5        30.07R
PASCAGOULA     CLEAR     38  37  97 CALM      30.07S

$$

COASTAL OBSERVATIONS
LAKE AND NEARSHORE STATIONS

STATION/POSITION TIME  TEMP    WIND        PRES    WAVE
                       AIR SEA DIR/SP/G            HT/PER
                 (UTC) (F)     (DEG/KT/KT) (MB)    (FT/S)
PASCAGOULA       0400   50     260/  7/  9 1017.7
WAVELAND YACHT   0400   47     240/  6/  6 1017.3
GRAND ISLE       0400   52 54  270/ 12/ 14 1019.9
SOUTHWEST PASS   0400   53 46  260/ 15/ 18 1019.7
NEW CANAL        0400   48 52  230/  7/ 10 1019.4
SHELL BEACH      0400   47 53  230/ 11/ 16 1019.0

OFFSHORE STATIONS

STATION/POSITION TIME  TEMP    WIND        PRES    WAVE
                       AIR SEA DIR/SP/G            HT/PER
                 (UTC) (F)     (DEG/KT/KT) (MB)    (FT/S)
64 S DAUPHIN ISL 0338   56 70  280/ 14/ 17 1019.0    4/ 8

$$




USA.gov is the U.S. government's official web portal to all federal, state and local government web resources and services.